Location: White Mills Observatory
(37.5374°N, 86.0303°W)
Time: 17:42:28
(UTC-04:00)

Amateur Radio Satellites - All Passes

Search period start: 29 June 2016 17:12
Search period end: 30 June 2016 17:12
Location: White Mills Observatory, 37.5374°N, 86.0303°W

Satellite Date Start Highest point End Downlink Frequencies (MHz)
Time Altitude Azimuth
ISS 29 Jun 17:22:35 17:24:50 17° 230° (SW) 17:27:05 145.825
BEESAT 29 Jun 17:26:10 17:29:13 17° 295° (WNW) 17:32:16 436.000
ITUPSAT 1 29 Jun 17:27:57 17:30:59 17° 295° (WNW) 17:34:00 437.325
AO-7 29 Jun 17:29:45 17:37:32 43° 260° (W) 17:45:24 29.400- 29.500
AIST 1 29 Jun 17:48:17 17:52:31 55° 94° (E) 17:56:44
CUBESAT XI-V 29 Jun 17:50:35 17:51:46 11° 90° (E) 17:52:56 437.345
RS-15 29 Jun 17:54:17 18:01:34 17° 5° (N) 18:08:56 29.354- 29.394
MOZHAYETS 4 29 Jun 17:54:18 17:58:56 67° 285° (WNW) 18:03:30
CUTE-I 29 Jun 17:56:11 17:59:13 16° 62° (ENE) 18:02:16 437.470
KKS-1 29 Jun 17:56:17 18:00:39 58° 286° (WNW) 18:05:01 437.445
SRMSAT 29 Jun 18:00:53 18:02:09 11° 170° (S) 18:03:24 437.500
SO-50 29 Jun 18:01:24 18:04:54 19° 314° (NW) 18:08:22 436.795
HORYU 2 29 Jun 18:17:43 18:21:56 45° 260° (W) 18:26:13 437.375
NOAA 15 29 Jun 18:18:48 18:23:33 35° 69° (ENE) 18:28:17 137.62
GONETS M04 29 Jun 18:20:02 18:27:01 28° 83° (E) 18:34:00
STARS 29 Jun 18:25:27 18:29:46 55° 287° (WNW) 18:34:04 437.465
JUGNU 29 Jun 18:31:06 18:33:40 13° 186° (S) 18:36:14 437.505
DOVE 4 29 Jun 18:52:40 18:53:55 11° 65° (ENE) 18:55:09 437.250
LilacSat-2 29 Jun 18:54:38 18:58:13 42° 74° (ENE) 19:01:49 437.200
Cubesat XI-IV 29 Jun 18:59:25 19:04:40 60° 73° (ENE) 19:09:57 437.490
NOAA 18 29 Jun 19:02:55 19:08:20 73° 74° (ENE) 19:13:50 137.9125
BRITE-PL 29 Jun 19:04:08 19:09:15 90° 79° (ENE) 19:13:58 437.365/2234.400
Cosmos 2499 29 Jun 19:22:24 19:30:14 49° 88° (E) 19:38:32 435.465 / 435.565
CUBESAT XI-V 29 Jun 19:24:58 19:29:33 63° 285° (WNW) 19:34:04 437.345
AIST 1 29 Jun 19:29:22 19:30:27 11° 290° (WNW) 19:31:33
GOMX 1 29 Jun 19:32:18 19:36:57 79° 77° (ENE) 19:41:19 467.674
CUTE-I 29 Jun 19:33:22 19:38:40 66° 258° (WSW) 19:44:01 437.470
HO-68 29 Jun 19:38:19 19:43:45 24° 60° (ENE) 19:49:11 435.675
STRAND 1 29 Jun 19:39:00 19:39:51 10° 90° (E) 19:40:42 437.568
SRMSAT 29 Jun 19:47:37 19:50:27 14° 180° (S) 19:53:16 437.500
CUSAT 1 29 Jun 19:56:25 19:59:40 42° 266° (W) 20:02:20 437.405
NOAA 15 29 Jun 19:58:55 20:03:19 27° 264° (W) 20:07:44 137.62
RS-15 29 Jun 20:08:44 20:19:37 34° 39° (NE) 20:30:26 29.354- 29.394
CANX-2 29 Jun 20:11:13 20:14:40 24° 70° (ENE) 20:18:08 2200.000
GONETS M04 29 Jun 20:14:44 20:23:14 57° 281° (WNW) 20:31:46
DOVE 4 29 Jun 20:26:55 20:31:11 56° 260° (W) 20:35:19 437.250
DANDE 29 Jun 20:29:45 20:34:19 63° 265° (W) 20:37:44 436.750
CUTE 1.7 + AOD 2 29 Jun 20:30:29 20:34:21 34° 72° (ENE) 20:38:15 437.475
LilacSat-2 29 Jun 20:31:43 20:32:44 11° 269° (W) 20:33:44 437.200
SEEDS 29 Jun 20:32:37 20:36:09 26° 70° (ENE) 20:39:42 437.485
Cubesat XI-IV 29 Jun 20:42:01 20:45:05 15° 268° (W) 20:48:11 437.490
NOAA 18 29 Jun 20:47:11 20:49:31 13° 269° (W) 20:51:50 137.9125
CUBEBUG 2 29 Jun 21:02:57 21:06:24 26° 70° (ENE) 21:09:57 437.445
AAUSAT CUBESAT 2 29 Jun 21:07:51 21:11:41 36° 72° (ENE) 21:15:32 437.432
CINEMA 3 29 Jun 21:13:35 21:17:40 62° 259° (W) 21:21:49 145.822/145.860
STRAND 1 29 Jun 21:14:24 21:19:34 79° 284° (WNW) 21:24:41 437.568
Cosmos 2499 29 Jun 21:16:08 21:23:32 34° 288° (WNW) 21:31:22 435.465 / 435.565
M-CUBED/EXP-1 PRIME 29 Jun 21:23:20 21:26:23 38° 68° (ENE) 21:29:27 437.505
HO-68 29 Jun 21:23:48 21:30:52 63° 257° (WSW) 21:38:00 435.675
ZACube-1 29 Jun 21:24:10 21:27:16 20° 68° (ENE) 21:30:25 437.345
Oscar 11 29 Jun 21:31:02 21:34:40 27° 70° (ENE) 21:38:19 145.826/435.025
SRMSAT 29 Jun 21:37:31 21:38:44 11° 190° (S) 21:39:58 437.500
FUNcube-1 29 Jun 21:40:25 21:44:02 29° 70° (ENE) 21:47:44 145.935
COMPASS 1 29 Jun 21:42:50 21:47:01 66° 260° (W) 21:51:13 437.405
CANX-2 29 Jun 21:46:50 21:50:24 25° 265° (W) 21:53:59 2200.000
UWE-3 29 Jun 21:46:55 21:51:01 57° 74° (ENE) 21:55:13 435.000/436.395/437.385
AO-85 29 Jun 21:49:48 21:55:05 54° 116° (ESE) 22:00:15 145.980
PRISM 29 Jun 21:54:35 21:58:26 39° 99° (E) 22:02:15 437.425
CUTE 1.7 + AOD 2 29 Jun 22:07:22 22:10:16 18° 267° (W) 22:13:11 437.475
SEEDS 29 Jun 22:08:22 22:11:46 23° 265° (W) 22:15:13 437.485
AUBIESAT-1 29 Jun 22:17:11 22:20:18 40° 256° (WSW) 22:23:28 437.475
RS-15 29 Jun 22:21:08 22:33:32 81° 243° (WSW) 22:45:42 29.354- 29.394
HUMSAT D 29 Jun 22:25:48 22:29:02 22° 69° (ENE) 22:32:19 437.325/437.525
CUBEBUG 2 29 Jun 22:39:44 22:43:00 22° 265° (W) 22:46:20 437.445
DELFI C3 29 Jun 22:43:33 22:47:35 83° 77° (ENE) 22:51:39 145.870
AAUSAT CUBESAT 2 29 Jun 22:44:37 22:47:16 16° 267° (W) 22:49:56 437.432
ZACube-1 29 Jun 22:59:39 23:03:21 30° 264° (W) 23:07:08 437.345
TIGRISAT 29 Jun 23:02:22 23:05:09 16° 92° (E) 23:07:56 435.000
Oscar 11 29 Jun 23:07:14 23:10:44 24° 265° (W) 23:14:15 145.826/435.025
UNISAT 6 29 Jun 23:07:31 23:10:50 19° 94° (E) 23:14:09 437.425
FUNcube-1 29 Jun 23:17:07 23:20:17 21° 266° (W) 23:23:31 145.935
CUBEBUG 1 29 Jun 23:22:09 23:23:26 11° 64° (ENE) 23:24:44 437.445
PRISM 29 Jun 23:31:06 23:33:23 15° 294° (WNW) 23:35:39 437.425
AO-85 29 Jun 23:31:36 23:35:52 23° 312° (NW) 23:40:01 145.980
VELOX 1 29 Jun 23:32:43 23:35:02 14° 65° (ENE) 23:37:21 145.980
ANTELSAT 29 Jun 23:46:17 23:50:50 50° 99° (E) 23:55:24 437.575/2403.000
Cosmos 2491 29 Jun 23:47:08 23:49:53 12° 75° (ENE) 23:52:37 435.465 / 435.565
HUMSAT D 30 Jun 00:00:58 00:04:30 27° 264° (W) 00:08:06 437.325/437.525
UKube-1 30 Jun 00:05:17 00:08:24 20° 67° (ENE) 00:11:32 .
SPROUT 30 Jun 00:05:26 00:07:22 13° 65° (ENE) 00:09:18 437.525
AISAT 30 Jun 00:11:40 00:15:45 39° 72° (ENE) 00:19:52 437.250
ESTCUBE 1 30 Jun 00:12:50 00:17:19 65° 75° (ENE) 00:21:50 437.505/2401.250
DX 1 30 Jun 00:26:42 00:30:48 43° 73° (ENE) 00:34:55 434.975-435.025
YUBILEINY 30 Jun 00:29:10 00:37:45 51° 77° (ENE) 00:46:16 435.215
50 SAT 30 Jun 00:36:10 00:39:53 82° 77° (ENE) 00:43:37 437.505
RS-15 30 Jun 00:36:46 00:44:00 18° 263° (W) 00:51:13 29.354- 29.394
TIGRISAT 30 Jun 00:37:33 00:42:02 47° 287° (WNW) 00:46:32 435.000
NANOSAT C BR1 30 Jun 00:38:08 00:41:45 26° 96° (E) 00:45:19 145.865
QB50P1 30 Jun 00:41:48 00:45:37 31° 97° (E) 00:49:23 145.935-145.965
UNISAT 6 30 Jun 00:43:18 00:47:38 39° 288° (WNW) 00:51:59 437.425
POPSAT HIP 1 30 Jun 00:45:07 00:48:59 33° 97° (E) 00:52:51 437.405
Cosmos 2504 30 Jun 00:45:40 00:51:55 21° 66° (ENE) 00:57:58 435.465 / 435.565
SO-50 30 Jun 00:53:01 00:57:08 30° 51° (NE) 01:01:08 436.795
CUBEBUG 1 30 Jun 00:54:52 00:59:11 62° 259° (W) 01:03:30 437.445
QB50P2 30 Jun 00:57:35 01:01:45 51° 99° (E) 01:05:54 145.880/145.840
DUCHIFAT 1 30 Jun 00:57:40 01:01:43 42° 99° (E) 01:05:44 145.980
POLYITAN 1 30 Jun 01:00:12 01:04:23 52° 100° (E) 01:08:34 437.675
VELOX 1 30 Jun 01:06:47 01:11:04 49° 260° (W) 01:15:21 145.980
JAS-2 30 Jun 01:07:18 01:09:37 13° 89° (E) 01:11:53 435.910
TISAT 1 30 Jun 01:19:04 01:22:14 21° 68° (ENE) 01:25:24 437.305
ANTELSAT 30 Jun 01:24:18 01:27:07 16° 294° (WNW) 01:29:56 437.575/2403.000
Cosmos 2491 30 Jun 01:36:22 01:45:05 75° 94° (E) 01:53:49 435.465 / 435.565
SPROUT 30 Jun 01:38:44 01:42:51 50° 260° (W) 01:47:00 437.525
UKube-1 30 Jun 01:40:21 01:44:13 32° 262° (W) 01:48:07 .
BUGSAT 1 30 Jun 01:47:28 01:51:34 72° 102° (ESE) 01:55:43 437.445
AISAT 30 Jun 01:49:36 01:52:22 16° 266° (W) 01:55:09 437.250
ESTCUBE 1 30 Jun 01:53:45 01:54:31 10° 270° (W) 01:55:16 437.505/2401.250
BEESAT 3 30 Jun 01:57:58 01:59:11 11° 108° (ESE) 02:00:24 437.485
DX 1 30 Jun 02:04:44 02:07:10 15° 267° (W) 02:09:37 434.975-435.025
NANOSAT C BR1 30 Jun 02:13:58 02:17:20 23° 291° (WNW) 02:20:42 145.865
QB50P1 30 Jun 02:18:02 02:21:10 20° 292° (WNW) 02:24:18 145.935-145.965
POPSAT HIP 1 30 Jun 02:21:30 02:24:31 19° 292° (WNW) 02:27:31 437.405
YUBILEINY 30 Jun 02:26:38 02:34:05 32° 276° (W) 02:41:34 435.215
SWISSCUBE 30 Jun 02:27:03 02:31:05 28° 68° (ENE) 02:35:08 437.505
SO-50 30 Jun 02:33:37 02:37:30 27° 248° (WSW) 02:41:18 436.795
DUCHIFAT 1 30 Jun 02:34:34 02:37:02 15° 294° (WNW) 02:39:30 145.980
QB50P2 30 Jun 02:35:07 02:37:06 13° 295° (WNW) 02:39:04 145.880/145.840
BEESAT 2 30 Jun 02:37:13 02:39:54 18° 110° (ESE) 02:42:36 435.950
Cosmos 2504 30 Jun 02:37:26 02:46:19 80° 266° (W) 02:54:45 435.465 / 435.565
POLYITAN 1 30 Jun 02:37:48 02:39:43 13° 295° (WNW) 02:41:37 437.675
PCSat 30 Jun 02:39:00 02:44:20 65° 114° (ESE) 02:49:44 145.827
O/OREOS (USA 219) 30 Jun 02:47:32 02:51:24 29° 103° (ESE) 02:55:17 437.305
JAS-2 30 Jun 02:49:52 02:55:21 64° 287° (WNW) 03:00:28 435.910
BEESAT 30 Jun 02:51:34 02:56:06 44° 72° (ENE) 03:00:39 436.000
ITUPSAT 1 30 Jun 02:53:35 02:58:09 45° 72° (ENE) 03:02:45 437.325
TISAT 1 30 Jun 02:54:10 02:57:43 27° 263° (W) 03:01:18 437.305
Oscar 19 30 Jun 02:54:51 02:59:51 52° 100° (E) 03:04:50 437.125/150
ITAMSAT 1 30 Jun 03:22:49 03:25:14 13° 91° (E) 03:27:38 435.822/435.867
Gurwin Techsat 1B 30 Jun 03:24:00 03:29:04 43° 99° (E) 03:34:05 435.225
BEESAT 3 30 Jun 03:32:34 03:36:23 51° 303° (WNW) 03:40:14 437.485
Cosmos 2491 30 Jun 03:36:27 03:42:46 22° 293° (WNW) 03:49:08 435.465 / 435.565
AO-7 30 Jun 03:44:23 03:47:12 12° 89° (E) 03:50:00 29.400- 29.500
AIST 1 30 Jun 03:59:33 04:00:51 11° 71° (ENE) 04:02:09
SWISSCUBE 30 Jun 04:04:40 04:08:46 28° 263° (W) 04:12:54 437.505
BEESAT 2 30 Jun 04:13:50 04:17:27 34° 306° (NW) 04:21:07 435.950
PCSat 30 Jun 04:24:28 04:28:12 19° 312° (NW) 04:31:58 145.827
O/OREOS (USA 219) 30 Jun 04:27:08 04:30:46 24° 299° (WNW) 04:34:24 437.305
BEESAT 30 Jun 04:30:56 04:34:04 17° 267° (W) 04:37:12 436.000
ITUPSAT 1 30 Jun 04:33:06 04:36:11 17° 267° (W) 04:39:17 437.325
Cosmos 2504 30 Jun 04:34:12 04:38:07 14° 284° (WNW) 04:42:00 435.465 / 435.565
GONETS M04 30 Jun 04:34:48 04:37:07 11° 59° (ENE) 04:39:27
Oscar 19 30 Jun 04:35:25 04:38:44 18° 296° (WNW) 04:42:02 437.125/150
KKS-1 30 Jun 04:52:00 04:56:25 82° 256° (WSW) 05:00:52 437.445
MOZHAYETS 4 30 Jun 04:53:46 04:58:23 90° 117° (ESE) 05:03:03
ITAMSAT 1 30 Jun 04:59:56 05:05:08 67° 286° (WNW) 05:10:17 435.822/435.867
Gurwin Techsat 1B 30 Jun 05:04:39 05:08:42 23° 294° (WNW) 05:12:45 435.225
AIST 2 30 Jun 05:08:57 05:12:50 43° 115° (ESE) 05:16:45 435.215
Cosmos 2499 30 Jun 05:18:13 05:22:59 16° 62° (ENE) 05:27:37 435.465 / 435.565
STARS 30 Jun 05:19:45 05:24:06 81° 256° (WSW) 05:28:29 437.465
AO-7 30 Jun 05:32:44 05:41:09 75° 106° (ESE) 05:49:30 29.400- 29.500
AIST 1 30 Jun 05:34:38 05:38:46 51° 267° (W) 05:42:53
HORYU 2 30 Jun 06:10:25 06:14:37 37° 99° (E) 06:18:47 437.375
AO-85 30 Jun 06:24:36 06:28:19 24° 49° (NE) 06:31:47 145.980
CUBESAT XI-V 30 Jun 06:25:47 06:30:30 83° 258° (WSW) 06:35:12 437.345
GONETS M04 30 Jun 06:27:03 06:35:45 67° 81° (E) 06:44:27
NOAA 15 30 Jun 06:37:11 06:40:01 14° 92° (E) 06:42:48 137.62
AIST 2 30 Jun 06:48:42 06:51:30 18° 312° (NW) 06:54:21 435.215
STRAND 1 30 Jun 06:52:07 06:54:45 14° 62° (ENE) 06:57:23 437.568
PHONESAT 2.4 30 Jun 07:05:40 07:08:39 51° 156° (SSE) 07:11:39 2401.200-2431.200
Cosmos 2499 30 Jun 07:08:47 07:17:36 83° 84° (E) 07:25:45 435.465 / 435.565
BRITE-PL 30 Jun 07:11:12 07:14:48 28° 97° (E) 07:18:28 437.365/2234.400
CUSAT 1 30 Jun 07:12:10 07:18:09 25° 90° (E) 07:23:28 437.405
Cubesat XI-IV 30 Jun 07:19:06 07:23:42 28° 96° (E) 07:28:14 437.490
AO-7 30 Jun 07:26:48 07:33:05 24° 304° (NW) 07:39:22 29.400- 29.500
NOAA 18 30 Jun 07:27:10 07:32:16 36° 98° (E) 07:37:20 137.9125
GOMX 1 30 Jun 07:36:01 07:39:29 24° 96° (E) 07:43:04 467.674
HORYU 2 30 Jun 07:47:44 07:50:52 19° 294° (WNW) 07:54:00 437.375
DANDE 30 Jun 07:49:43 07:56:25 28° 87° (E) 08:02:44 436.750
CUTE-I 30 Jun 07:52:22 07:57:42 59° 101° (E) 08:02:58 437.470
LilacSat-2 30 Jun 08:03:43 08:07:38 90° 94° (E) 08:11:31 437.200
AO-85 30 Jun 08:04:57 08:08:45 30° 248° (WSW) 08:12:18 145.980
NOAA 15 30 Jun 08:14:59 08:20:10 61° 287° (WNW) 08:25:18 137.62
ISS 30 Jun 08:23:38 08:26:37 34° 134° (SE) 08:29:37 145.825
GONETS M04 30 Jun 08:25:19 08:31:44 24° 278° (W) 08:38:11
DOVE 4 30 Jun 08:26:52 08:31:03 40° 99° (E) 08:35:25 437.250
STRAND 1 30 Jun 08:28:12 08:33:18 68° 258° (WSW) 08:38:28 437.568
PHONESAT 2.4 30 Jun 08:42:17 08:45:17 51° 352° (N) 08:48:17 2401.200-2431.200
PRISM 30 Jun 08:42:27 08:45:45 23° 69° (ENE) 08:49:02 437.425
BRITE-PL 30 Jun 08:50:07 08:53:09 20° 291° (WNW) 08:56:13 437.365/2234.400
CUSAT 1 30 Jun 08:52:18 08:59:57 58° 281° (W) 09:06:24 437.405
HO-68 30 Jun 08:54:12 09:00:15 28° 96° (E) 09:06:16 435.675
Cubesat XI-IV 30 Jun 08:58:55 09:03:44 34° 291° (WNW) 09:08:32 437.490
Cosmos 2499 30 Jun 09:04:09 09:09:27 18° 282° (WNW) 09:14:35 435.465 / 435.565
NOAA 18 30 Jun 09:08:05 09:12:45 28° 294° (WNW) 09:17:24 137.9125
CINEMA 3 30 Jun 09:09:30 09:13:45 35° 98° (E) 09:18:08 145.822/145.860
GOMX 1 30 Jun 09:14:02 09:17:32 25° 289° (WNW) 09:21:09 467.674
COMPASS 1 30 Jun 09:28:17 09:31:34 22° 95° (E) 09:34:48 437.405
DANDE 30 Jun 09:30:28 09:38:48 64° 281° (W) 09:46:29 436.750
CANX-2 30 Jun 09:32:56 09:37:12 62° 101° (E) 09:41:24 2200.000
CUTE-I 30 Jun 09:33:50 09:37:13 17° 297° (WNW) 09:40:35 437.470
UWE-3 30 Jun 09:39:31 09:42:10 15° 92° (E) 09:44:49 435.000/436.395/437.385
CUTE 1.7 + AOD 2 30 Jun 09:52:33 09:56:51 89° 277° (W) 10:01:06 437.475
SEEDS 30 Jun 09:53:11 09:57:23 65° 100° (E) 10:01:34 437.485
AUBIESAT-1 30 Jun 09:57:58 09:59:56 13° 99° (E) 10:01:55 437.475
ISS 30 Jun 10:00:22 10:03:06 24° 330° (NNW) 10:05:51 145.825
TIGRISAT 30 Jun 10:01:42 10:02:14 10° 63° (ENE) 10:02:46 435.000
DOVE 4 30 Jun 10:05:38 10:08:29 17° 292° (WNW) 10:11:24 437.250
UNISAT 6 30 Jun 10:06:01 10:07:55 13° 64° (ENE) 10:09:49 437.425
PRISM 30 Jun 10:17:28 10:20:55 25° 263° (W) 10:24:23 437.425
PHONESAT 2.4 30 Jun 10:19:06 10:22:08 54° 9° (N) 10:25:09 2401.200-2431.200
DELFI C3 30 Jun 10:25:13 10:26:45 12° 92° (E) 10:28:16 145.870
AAUSAT CUBESAT 2 30 Jun 10:27:00 10:31:11 90° 146° (SE) 10:35:18 437.432
CUBEBUG 2 30 Jun 10:30:46 10:35:26 82° 102° (ESE) 10:40:10 437.445
RS-15 30 Jun 10:35:01 10:41:39 18° 97° (E) 10:48:24 29.354- 29.394
M-CUBED/EXP-1 PRIME 30 Jun 10:37:11 10:41:04 46° 105° (ESE) 10:45:14 437.505
HO-68 30 Jun 10:41:15 10:48:09 51° 292° (WNW) 10:55:01 435.675
ANTELSAT 30 Jun 10:43:29 10:47:19 32° 71° (ENE) 10:51:15 437.575/2403.000
CINEMA 3 30 Jun 10:47:09 10:50:40 22° 291° (WNW) 10:54:16 145.822/145.860
ZACube-1 30 Jun 10:48:58 10:53:28 57° 100° (E) 10:57:59 437.345
Oscar 11 30 Jun 10:55:17 10:59:39 71° 102° (ESE) 11:03:58 145.826/435.025
COMPASS 1 30 Jun 11:03:33 11:07:04 26° 290° (WNW) 11:10:33 437.405
FUNcube-1 30 Jun 11:05:25 11:10:01 83° 104° (ESE) 11:14:35 145.935
CANX-2 30 Jun 11:11:23 11:12:28 11° 296° (WNW) 11:13:34 2200.000
UWE-3 30 Jun 11:14:22 11:18:50 48° 286° (WNW) 11:23:19 435.000/436.395/437.385
DANDE 30 Jun 11:19:58 11:22:46 12° 297° (WNW) 11:25:30 436.750
PCSat 30 Jun 11:29:02 11:33:58 34° 55° (NE) 11:38:53 145.827
NANOSAT C BR1 30 Jun 11:29:24 11:31:56 16° 67° (ENE) 11:34:29 145.865
AUBIESAT-1 30 Jun 11:30:37 11:34:30 48° 290° (WNW) 11:38:38 437.475
SEEDS 30 Jun 11:32:10 11:32:30 10° 296° (WNW) 11:32:50 437.485
QB50P1 30 Jun 11:33:07 11:36:01 18° 68° (ENE) 11:38:56 145.935-145.965
TIGRISAT 30 Jun 11:34:01 11:38:17 68° 259° (W) 11:42:39 435.000
POPSAT HIP 1 30 Jun 11:36:23 11:39:25 20° 68° (ENE) 11:42:27 437.405
UNISAT 6 30 Jun 11:39:54 11:44:06 54° 260° (W) 11:48:26 437.425
HUMSAT D 30 Jun 11:45:29 11:49:43 53° 100° (E) 11:53:55 437.325/437.525
DUCHIFAT 1 30 Jun 11:48:04 11:51:25 24° 69° (ENE) 11:54:48 145.980
QB50P2 30 Jun 11:48:31 11:52:09 29° 71° (ENE) 11:55:48 145.880/145.840
Cosmos 2491 30 Jun 11:49:42 11:57:23 33° 72° (ENE) 12:05:00 435.465 / 435.565
POLYITAN 1 30 Jun 11:51:08 11:54:46 30° 71° (ENE) 11:58:27 437.675
BEESAT 3 30 Jun 11:51:29 11:55:18 44° 56° (NE) 11:59:05 437.485
PHONESAT 2.4 30 Jun 11:55:47 11:58:44 44° 205° (SSW) 12:01:40 2401.200-2431.200
DELFI C3 30 Jun 11:58:02 12:01:49 43° 286° (WNW) 12:05:34 145.870
ESTCUBE 1 30 Jun 12:08:39 12:11:20 16° 93° (E) 12:14:01 437.505/2401.250
M-CUBED/EXP-1 PRIME 30 Jun 12:13:09 12:15:19 14° 297° (WNW) 12:17:32 437.505
ANTELSAT 30 Jun 12:21:00 12:24:06 19° 267° (W) 12:27:15 437.575/2403.000
ZACube-1 30 Jun 12:27:02 12:29:15 13° 295° (WNW) 12:31:27 437.345
BEESAT 2 30 Jun 12:33:09 12:37:09 72° 59° (ENE) 12:41:07 435.950
BUGSAT 1 30 Jun 12:35:25 12:39:06 36° 72° (ENE) 12:42:46 437.445
RS-15 30 Jun 12:40:42 12:52:01 83° 117° (ESE) 13:04:02 29.354- 29.394
CUBEBUG 1 30 Jun 12:45:44 12:49:23 26° 96° (E) 12:53:01 437.445
JAS-2 30 Jun 12:57:36 13:04:49 48° 71° (ENE) 13:11:25 435.910
VELOX 1 30 Jun 12:58:51 13:02:51 33° 98° (E) 13:06:49 145.980
O/OREOS (USA 219) 30 Jun 12:58:51 13:03:05 40° 65° (ENE) 13:07:20 437.305
NANOSAT C BR1 30 Jun 13:03:26 13:07:20 38° 262° (W) 13:11:16 145.865
QB50P1 30 Jun 13:07:47 13:11:33 32° 263° (W) 13:15:20 145.935-145.965
POPSAT HIP 1 30 Jun 13:11:18 13:14:59 30° 263° (W) 13:18:43 437.405
PCSat 30 Jun 13:12:34 13:17:15 30° 252° (WSW) 13:21:54 145.827
HUMSAT D 30 Jun 13:22:57 13:24:51 13° 295° (WNW) 13:26:44 437.325/437.525
DUCHIFAT 1 30 Jun 13:23:37 13:27:01 24° 264° (W) 13:30:26 145.980
Cosmos 2504 30 Jun 13:23:38 13:28:07 16° 77° (ENE) 13:32:42 435.465 / 435.565
QB50P2 30 Jun 13:24:50 13:27:57 20° 265° (W) 13:31:05 145.880/145.840
SPROUT 30 Jun 13:26:43 13:30:30 30° 97° (E) 13:34:16 437.525
YUBILEINY 30 Jun 13:27:14 13:35:45 63° 92° (E) 13:44:21 435.215
POLYITAN 1 30 Jun 13:27:32 13:30:35 20° 265° (W) 13:33:40 437.675
UKube-1 30 Jun 13:28:52 13:33:00 44° 100° (E) 13:37:07 .
BEESAT 3 30 Jun 13:30:40 13:32:34 13° 251° (WSW) 13:34:28 437.485
AIST 2 30 Jun 13:32:38 13:35:32 18° 48° (NE) 13:38:25 435.215
AISAT 30 Jun 13:39:39 13:44:02 76° 286° (WNW) 13:48:26 437.250
50 SAT 30 Jun 13:40:41 13:44:19 57° 284° (WNW) 13:47:53 437.505
ESTCUBE 1 30 Jun 13:44:05 13:48:19 43° 288° (WNW) 13:52:33 437.505/2401.250
Cosmos 2491 30 Jun 13:46:10 13:54:24 49° 271° (W) 14:02:38 435.465 / 435.565
DX 1 30 Jun 13:52:29 13:56:50 75° 285° (WNW) 14:01:08 434.975-435.025
Oscar 19 30 Jun 14:09:38 14:14:43 63° 74° (ENE) 14:19:47 437.125/150
BUGSAT 1 30 Jun 14:12:19 14:14:35 15° 267° (W) 14:16:52 437.445
CUBEBUG 1 30 Jun 14:22:05 14:25:33 24° 291° (WNW) 14:29:00 437.445
VELOX 1 30 Jun 14:35:53 14:39:03 20° 293° (WNW) 14:42:13 145.980
ITAMSAT 1 30 Jun 14:38:35 14:42:02 18° 64° (ENE) 14:45:31 435.822/435.867
TISAT 1 30 Jun 14:39:11 14:43:17 49° 100° (E) 14:47:22 437.305
O/OREOS (USA 219) 30 Jun 14:39:19 14:42:06 16° 260° (W) 14:44:54 437.305
AO-7 30 Jun 14:40:51 14:45:57 18° 52° (NE) 14:51:05 29.400- 29.500
Gurwin Techsat 1B 30 Jun 14:43:03 14:48:14 56° 73° (ENE) 14:53:26 435.225
JAS-2 30 Jun 14:43:12 14:49:51 32° 264° (W) 14:56:03 435.910
ISS 30 Jun 14:53:00 14:55:44 24° 30° (NNE) 14:58:27 145.825
BEESAT 30 Jun 14:55:25 14:57:36 13° 92° (E) 14:59:46 436.000
RS-15 30 Jun 14:55:55 15:05:58 32° 323° (NW) 15:16:30 29.354- 29.394
ITUPSAT 1 30 Jun 14:57:43 15:00:05 13° 92° (E) 15:02:25 437.325
SPROUT 30 Jun 15:03:02 15:06:15 21° 292° (WNW) 15:09:28 437.525
UKube-1 30 Jun 15:06:14 15:08:39 15° 295° (WNW) 15:11:05 .
SO-50 30 Jun 15:06:39 15:09:30 16° 108° (ESE) 15:12:22 436.795
AIST 2 30 Jun 15:10:15 15:14:12 42° 245° (WSW) 15:18:07 435.215
Cosmos 2504 30 Jun 15:11:58 15:20:04 90° 271° (W) 15:28:49 435.465 / 435.565
YUBILEINY 30 Jun 15:26:09 15:33:06 26° 291° (WNW) 15:40:10 435.215
Oscar 19 30 Jun 15:51:56 15:54:25 13° 269° (W) 15:56:54 437.125/150
SWISSCUBE 30 Jun 16:05:53 16:10:42 85° 101° (E) 16:15:29 437.505
ITAMSAT 1 30 Jun 16:15:59 16:21:03 53° 260° (W) 16:26:10 435.822/435.867
TISAT 1 30 Jun 16:16:30 16:18:29 13° 295° (WNW) 16:20:28 437.305
Gurwin Techsat 1B 30 Jun 16:25:17 16:28:30 16° 268° (W) 16:31:43 435.225
JUGNU 30 Jun 16:27:37 16:30:22 13° 176° (S) 16:33:07 437.505
AO-7 30 Jun 16:29:10 16:37:29 83° 71° (ENE) 16:45:54 29.400- 29.500
ISS 30 Jun 16:29:12 16:32:13 35° 226° (SW) 16:35:14 145.825
BEESAT 30 Jun 16:31:01 16:35:43 58° 287° (WNW) 16:40:24 436.000
ITUPSAT 1 30 Jun 16:33:31 16:38:14 56° 287° (WNW) 16:42:55 437.325
SO-50 30 Jun 16:44:41 16:49:30 58° 303° (WNW) 16:54:20 436.795
KKS-1 30 Jun 16:45:31 16:48:58 22° 95° (E) 16:52:24 437.445
MOZHAYETS 4 30 Jun 16:51:21 16:55:08 24° 95° (E) 16:58:53
